BCS6717 EGLL-EDDF

Flight info

Callsign BCS6717
Flight time 1h 8m
Altitude 35000
Route BPK Q295 MATCH DCT REDFA DCT TACHA DCT NOLRU DCT DIXAT DIXAT1A
Aircraft A306/H-SDE3FGHIRWY/LB1

Departure

Time 2026-05-07 15:10
Airport London Heathrow Airport (EGLL)

Arrival

Time 2026-05-07 16:18
Airport Frankfurt Main Airport (EDDF)
Time Latitude Longitude Altitude Speed Heading
2026-05-07 14:47 51.46018 -0.47389 93 ft 0 kts 235°
2026-05-07 14:57 51.46019 -0.47386 93 ft 3 kts 235°
2026-05-07 14:57 51.46034 -0.47351 92 ft 4 kts 239°
2026-05-07 14:57 51.46046 -0.47313 94 ft 4 kts 250°
2026-05-07 14:58 51.46051 -0.47274 94 ft 4 kts 293°
2026-05-07 14:58 51.46045 -0.47261 94 ft 0 kts
2026-05-07 15:02 51.46081 -0.47261 94 ft 10 kts 360°
2026-05-07 15:02 51.46182 -0.47262 95 ft 19 kts 359°
2026-05-07 15:02 51.46296 -0.47279 95 ft 13 kts 330°
2026-05-07 15:02 51.46313 -0.47303 94 ft 0 kts 313°
2026-05-07 15:03 51.46313 -0.47304 94 ft 0 kts 313°
2026-05-07 15:03 51.46328 -0.47353 98 ft 10 kts 284°
2026-05-07 15:03 51.46340 -0.47514 95 ft 19 kts 270°
2026-05-07 15:04 51.46296 -0.47746 96 ft 21 kts 241°
2026-05-07 15:04 51.46252 -0.47943 97 ft 18 kts 265°
2026-05-07 15:04 51.46249 -0.48134 97 ft 17 kts 270°
2026-05-07 15:04 51.46249 -0.48332 90 ft 18 kts 270°
2026-05-07 15:05 51.46249 -0.48517 92 ft 15 kts 272°
2026-05-07 15:05 51.46280 -0.48666 95 ft 11 kts 307°
2026-05-07 15:05 51.46296 -0.48694 96 ft 0 kts 319°
2026-05-07 15:08 51.46320 -0.48718 93 ft 11 kts 331°
2026-05-07 15:08 51.46435 -0.48746 93 ft 18 kts 13°
2026-05-07 15:09 51.46478 -0.48597 92 ft 15 kts 89°
2026-05-07 15:09 51.46476 -0.48437 95 ft 13 kts 88°
2026-05-07 15:09 51.46480 -0.48179 94 ft 50 kts 90°
2026-05-07 15:09 51.46483 -0.47229 96 ft 117 kts 89°
2026-05-07 15:10 51.46489 -0.45645 93 ft 170 kts 89°
2026-05-07 15:10 51.46505 -0.43713 810 ft 170 kts 89°
2026-05-07 15:10 51.46615 -0.41837 1620 ft 175 kts 71°
2026-05-07 15:10 51.47329 -0.40036 1991 ft 207 kts 48°
2026-05-07 15:11 51.48380 -0.38273 2326 ft 236 kts 45°
2026-05-07 15:11 51.49594 -0.36309 2784 ft 256 kts 45°
2026-05-07 15:11 51.50848 -0.34229 3677 ft 262 kts 46°
2026-05-07 15:11 51.51871 -0.31811 4627 ft 265 kts 68°
2026-05-07 15:12 51.52517 -0.29019 5455 ft 268 kts 70°
2026-05-07 15:12 51.53143 -0.26169 6391 ft 273 kts 68°
2026-05-07 15:12 51.54084 -0.23516 7373 ft 276 kts 51°
2026-05-07 15:12 51.55551 -0.21531 8344 ft 279 kts 28°
2026-05-07 15:13 51.57340 -0.20294 9297 ft 282 kts 20°
2026-05-07 15:13 51.59202 -0.19217 10197 ft 286 kts 22°
2026-05-07 15:13 51.60966 -0.17601 10797 ft 303 kts 37°
2026-05-07 15:13 51.62550 -0.15200 11121 ft 324 kts 47°
2026-05-07 15:14 51.64017 -0.12293 11398 ft 344 kts 53°
2026-05-07 15:14 51.65429 -0.09041 11672 ft 362 kts 56°
2026-05-07 15:14 51.66846 -0.05576 11965 ft 378 kts 57°
2026-05-07 15:14 51.68300 -0.01996 12484 ft 385 kts 56°
2026-05-07 15:15 51.69793 0.01624 13072 ft 390 kts 56°
2026-05-07 15:15 51.71318 0.05261 13686 ft 394 kts 56°
2026-05-07 15:15 51.72873 0.08914 14291 ft 397 kts 55°
2026-05-07 15:15 51.74453 0.12597 14886 ft 401 kts 55°
2026-05-07 15:16 51.76027 0.16345 15472 ft 405 kts 58°
2026-05-07 15:16 51.77211 0.20474 16063 ft 408 kts 71°
2026-05-07 15:16 51.77981 0.24909 16641 ft 411 kts 73°
2026-05-07 15:16 51.78756 0.29373 17185 ft 415 kts 75°
2026-05-07 15:17 51.79467 0.33911 17709 ft 418 kts 76°
2026-05-07 15:17 51.80153 0.38435 18217 ft 421 kts 76°
2026-05-07 15:17 51.80853 0.43054 18694 ft 424 kts 76°
2026-05-07 15:17 51.81566 0.47704 19174 ft 427 kts 76°
2026-05-07 15:18 51.82290 0.52374 19631 ft 430 kts 76°
2026-05-07 15:18 51.83026 0.57077 20069 ft 433 kts 76°
2026-05-07 15:18 51.83770 0.61816 20496 ft 436 kts 76°
2026-05-07 15:18 51.84517 0.66573 20910 ft 439 kts 76°
2026-05-07 15:19 51.85269 0.71371 21322 ft 441 kts 76°
2026-05-07 15:19 51.86023 0.76203 21727 ft 444 kts 76°
2026-05-07 15:19 51.86778 0.81056 22104 ft 446 kts 76°
2026-05-07 15:19 51.87536 0.85944 22473 ft 449 kts 76°
2026-05-07 15:20 51.88297 0.90866 22842 ft 451 kts 76°
2026-05-07 15:20 51.89059 0.95813 23193 ft 454 kts 76°
2026-05-07 15:20 51.89822 1.00781 23526 ft 456 kts 76°
2026-05-07 15:20 51.90587 1.05781 23852 ft 458 kts 76°
2026-05-07 15:21 51.91353 1.10802 24171 ft 460 kts 76°
2026-05-07 15:21 51.92121 1.15851 24475 ft 463 kts 76°
2026-05-07 15:21 51.92890 1.20921 24775 ft 465 kts 76°
2026-05-07 15:21 51.93661 1.26024 25058 ft 467 kts 76°
2026-05-07 15:22 51.94421 1.31070 25326 ft 468 kts 76°
2026-05-07 15:22 51.95196 1.36230 25599 ft 470 kts 76°
2026-05-07 15:22 51.95969 1.41393 25859 ft 472 kts 76°
2026-05-07 15:22 51.96742 1.46579 26109 ft 474 kts 76°
2026-05-07 15:23 51.97517 1.51788 26352 ft 476 kts 76°
2026-05-07 15:23 51.98293 1.57021 26584 ft 477 kts 76°
2026-05-07 15:23 51.99066 1.62259 26810 ft 479 kts 76°
2026-05-07 15:23 51.99841 1.67519 27068 ft 480 kts 76°
2026-05-07 15:24 52.00612 1.72776 27446 ft 477 kts 76°
2026-05-07 15:24 52.01369 1.77954 28186 ft 466 kts 76°
2026-05-07 15:24 52.02107 1.83018 28951 ft 456 kts 77°
2026-05-07 15:24 52.02826 1.87972 29703 ft 446 kts 77°
2026-05-07 15:25 52.03533 1.92853 30218 ft 443 kts 77°
2026-05-07 15:25 52.04235 1.97715 30561 ft 443 kts 77°
2026-05-07 15:25 52.04938 2.02602 30854 ft 445 kts 77°
2026-05-07 15:25 52.05641 2.07505 31126 ft 446 kts 77°
2026-05-07 15:26 52.06344 2.12427 31389 ft 448 kts 77°
2026-05-07 15:26 52.07048 2.17362 31640 ft 450 kts 77°
2026-05-07 15:26 52.07754 2.22335 31893 ft 452 kts 77°
2026-05-07 15:26 52.08460 2.27322 32140 ft 454 kts 77°
2026-05-07 15:27 52.09137 2.32331 32358 ft 455 kts 80°
2026-05-07 15:27 52.09488 2.37459 32590 ft 457 kts 88°
2026-05-07 15:27 52.09351 2.42633 32811 ft 459 kts 97°
2026-05-07 15:27 52.08870 2.47770 33030 ft 460 kts 100°
2026-05-07 15:28 52.08231 2.52876 33241 ft 462 kts 102°
2026-05-07 15:28 52.07518 2.57902 33444 ft 463 kts 103°
2026-05-07 15:28 52.06762 2.63000 33643 ft 465 kts 103°
2026-05-07 15:28 52.06001 2.68106 33833 ft 466 kts 103°
2026-05-07 15:29 52.05243 2.73241 34012 ft 467 kts 103°
2026-05-07 15:29 52.04495 2.78383 34210 ft 469 kts 103°
2026-05-07 15:29 52.03749 2.83556 34376 ft 470 kts 103°
2026-05-07 15:29 52.03007 2.88732 34546 ft 471 kts 103°
2026-05-07 15:30 52.02263 2.93924 34740 ft 472 kts 103°
2026-05-07 15:30 52.01521 2.99094 34965 ft 469 kts 103°
2026-05-07 15:30 52.00044 3.09322 35004 ft 463 kts 103°
2026-05-07 15:31 51.98565 3.19487 34992 ft 463 kts 103°
2026-05-07 15:31 51.97077 3.29645 35003 ft 463 kts 103°
2026-05-07 15:32 51.95832 3.38088 34994 ft 463 kts 103°
2026-05-07 15:32 51.94325 3.48249 35000 ft 463 kts 103°
2026-05-07 15:33 51.92813 3.58380 34997 ft 463 kts 103°
2026-05-07 15:33 51.91288 3.68532 34999 ft 463 kts 104°
2026-05-07 15:34 51.89758 3.78652 34998 ft 463 kts 104°
2026-05-07 15:34 51.88217 3.88783 34996 ft 463 kts 104°
2026-05-07 15:35 51.86669 3.98895 35004 ft 463 kts 104°
2026-05-07 15:35 51.85113 4.08994 34997 ft 463 kts 104°
2026-05-07 15:36 51.83548 4.19088 35001 ft 463 kts 104°
2026-05-07 15:36 51.81971 4.29195 35005 ft 463 kts 104°
2026-05-07 15:37 51.80395 4.39236 34998 ft 463 kts 104°
2026-05-07 15:37 51.78803 4.49321 35001 ft 463 kts 104°
2026-05-07 15:38 51.77200 4.59410 34995 ft 463 kts 104°
2026-05-07 15:38 51.75590 4.69480 35000 ft 463 kts 104°
2026-05-07 15:39 51.73972 4.79541 35004 ft 463 kts 104°
2026-05-07 15:39 51.72345 4.89593 34996 ft 463 kts 104°
2026-05-07 15:40 51.70710 4.99641 34992 ft 463 kts 105°
2026-05-07 15:40 51.69067 5.09675 34994 ft 463 kts 105°
2026-05-07 15:41 51.67414 5.19714 35001 ft 463 kts 105°
2026-05-07 15:41 51.65754 5.29730 34998 ft 463 kts 105°
2026-05-07 15:42 51.64084 5.39750 34992 ft 463 kts 105°
2026-05-07 15:42 51.62407 5.49760 35006 ft 463 kts 105°
2026-05-07 15:43 51.60720 5.59762 35000 ft 463 kts 105°
2026-05-07 15:43 51.59025 5.69760 35004 ft 463 kts 105°
2026-05-07 15:44 51.57322 5.79742 35003 ft 463 kts 105°
2026-05-07 15:44 51.55610 5.89725 35002 ft 463 kts 105°
2026-05-07 15:45 51.53889 5.99700 34995 ft 463 kts 105°
2026-05-07 15:45 51.52160 6.09666 35005 ft 463 kts 105°
2026-05-07 15:46 51.49329 6.24420 35001 ft 463 kts 111°
2026-05-07 15:47 51.46998 6.34075 35000 ft 463 kts 111°
2026-05-07 15:47 51.44639 6.43697 34997 ft 463 kts 111°
2026-05-07 15:48 51.42272 6.53292 34994 ft 463 kts 111°
2026-05-07 15:48 51.39894 6.62885 34996 ft 463 kts 111°
2026-05-07 15:49 51.37508 6.72466 34998 ft 463 kts 112°
2026-05-07 15:49 51.35115 6.82034 35000 ft 463 kts 112°
2026-05-07 15:50 51.32713 6.91598 35001 ft 463 kts 112°
2026-05-07 15:50 51.30301 7.01155 35003 ft 464 kts 112°
2026-05-07 15:51 51.27306 7.10247 34987 ft 464 kts 126°
2026-05-07 15:51 51.22845 7.17566 35000 ft 464 kts 143°
2026-05-07 15:52 51.17272 7.22699 34997 ft 464 kts 154°
2026-05-07 15:52 51.11475 7.27241 35000 ft 464 kts 153°
2026-05-07 15:53 51.05723 7.31938 35002 ft 464 kts 153°
2026-05-07 15:53 50.99995 7.36654 35004 ft 464 kts 153°
2026-05-07 15:54 50.94260 7.41368 34999 ft 464 kts 153°
2026-05-07 15:54 50.91399 7.43715 34623 ft 462 kts 153°
2026-05-07 15:54 50.88549 7.46050 33977 ft 459 kts 153°
2026-05-07 15:54 50.85734 7.48352 33468 ft 452 kts 153°
2026-05-07 15:55 50.82964 7.50615 32717 ft 445 kts 153°
2026-05-07 15:55 50.80213 7.52859 31520 ft 445 kts 153°
2026-05-07 15:55 50.77464 7.55098 30403 ft 443 kts 153°
2026-05-07 15:55 50.74742 7.57313 29382 ft 437 kts 153°
2026-05-07 15:56 50.72053 7.59498 28401 ft 431 kts 153°
2026-05-07 15:56 50.69404 7.61648 27438 ft 425 kts 153°
2026-05-07 15:56 50.66804 7.63755 26495 ft 419 kts 153°
2026-05-07 15:56 50.64216 7.65850 25553 ft 413 kts 153°
2026-05-07 15:57 50.61716 7.67871 24608 ft 407 kts 153°
2026-05-07 15:57 50.59205 7.69898 23663 ft 402 kts 153°
2026-05-07 15:57 50.56730 7.71893 22739 ft 397 kts 153°
2026-05-07 15:57 50.54291 7.73857 21841 ft 391 kts 153°
2026-05-07 15:58 50.51886 7.75791 20956 ft 386 kts 153°
2026-05-07 15:58 50.49513 7.77696 20054 ft 381 kts 153°
2026-05-07 15:58 50.47167 7.79579 19153 ft 376 kts 153°
2026-05-07 15:58 50.44854 7.81437 18262 ft 371 kts 152°
2026-05-07 15:59 50.42687 7.83553 17378 ft 366 kts 144°
2026-05-07 15:59 50.40682 7.85969 16491 ft 361 kts 142°
2026-05-07 15:59 50.38731 7.88402 15605 ft 356 kts 141°
2026-05-07 15:59 50.36805 7.90808 14723 ft 351 kts 142°
2026-05-07 16:00 50.34905 7.93173 13833 ft 347 kts 142°
2026-05-07 16:00 50.33033 7.95496 13100 ft 339 kts 142°
2026-05-07 16:00 50.31162 7.97812 12153 ft 338 kts 142°
2026-05-07 16:00 50.29372 8.00022 11968 ft 314 kts 142°
2026-05-07 16:01 50.27751 8.02026 11971 ft 291 kts 142°
2026-05-07 16:01 50.26259 8.04073 11881 ft 281 kts 133°
2026-05-07 16:01 50.24985 8.06435 11252 ft 290 kts 128°
2026-05-07 16:01 50.23731 8.08991 10541 ft 303 kts 127°
2026-05-07 16:02 50.22433 8.11664 10115 ft 313 kts 127°
2026-05-07 16:02 50.21103 8.14385 9999 ft 315 kts 127°
2026-05-07 16:02 50.19770 8.17101 9998 ft 315 kts 128°
2026-05-07 16:02 50.18437 8.19808 10000 ft 315 kts 128°
2026-05-07 16:03 50.17098 8.22519 9999 ft 315 kts 128°
2026-05-07 16:03 50.15763 8.25216 9999 ft 315 kts 128°
2026-05-07 16:03 50.14423 8.27922 10003 ft 315 kts 128°
2026-05-07 16:03 50.13088 8.30615 10000 ft 315 kts 128°
2026-05-07 16:04 50.11768 8.33274 9999 ft 314 kts 128°
2026-05-07 16:04 50.10597 8.36142 9993 ft 314 kts 112°
2026-05-07 16:04 50.10278 8.39533 10000 ft 318 kts 83°
2026-05-07 16:04 50.10851 8.42843 10005 ft 324 kts 70°
2026-05-07 16:05 50.11660 8.46138 9998 ft 326 kts 68°
2026-05-07 16:05 50.12481 8.49422 9996 ft 322 kts 69°
2026-05-07 16:05 50.13261 8.52585 9999 ft 303 kts 69°
2026-05-07 16:05 50.13989 8.55582 10000 ft 291 kts 69°
2026-05-07 16:06 50.14700 8.58528 9884 ft 291 kts 69°
2026-05-07 16:06 50.15409 8.61490 9470 ft 292 kts 69°
2026-05-07 16:06 50.16118 8.64463 9012 ft 292 kts 69°
2026-05-07 16:06 50.16820 8.67415 8600 ft 290 kts 69°
2026-05-07 16:07 50.17520 8.70357 8178 ft 288 kts 69°
2026-05-07 16:07 50.18215 8.73284 7769 ft 286 kts 69°
2026-05-07 16:07 50.18903 8.76189 7353 ft 285 kts 69°
2026-05-07 16:07 50.19587 8.79085 6970 ft 282 kts 70°
2026-05-07 16:08 50.20259 8.81936 6703 ft 277 kts 70°
2026-05-07 16:08 50.20924 8.84757 6548 ft 276 kts 70°
2026-05-07 16:08 50.21586 8.87571 6216 ft 274 kts 70°
2026-05-07 16:08 50.22230 8.90302 6078 ft 263 kts 70°
2026-05-07 16:09 50.22846 8.92933 5948 ft 253 kts 70°
2026-05-07 16:09 50.23433 8.95488 5780 ft 246 kts 73°
2026-05-07 16:09 50.23539 8.98107 5526 ft 243 kts 103°
2026-05-07 16:09 50.22808 9.00402 5254 ft 241 kts 133°
2026-05-07 16:10 50.21967 9.01444 5078 ft 238 kts 153°
2026-05-07 16:10 50.21351 9.01845 4950 ft 235 kts 163°
2026-05-07 16:10 50.19765 9.02331 4528 ft 232 kts 172°
2026-05-07 16:10 50.18158 9.02634 4129 ft 233 kts 176°
2026-05-07 16:11 50.16585 9.02180 3997 ft 233 kts 207°
2026-05-07 16:11 50.15286 9.00690 4004 ft 231 kts 222°
2026-05-07 16:11 50.14148 8.99043 3997 ft 216 kts 225°
2026-05-07 16:11 50.13260 8.97208 4004 ft 211 kts 241°
2026-05-07 16:12 50.12670 8.95123 4004 ft 210 kts 250°
2026-05-07 16:12 50.12170 8.92979 3996 ft 210 kts 250°
2026-05-07 16:12 50.11669 8.90839 3997 ft 210 kts 250°
2026-05-07 16:12 50.11165 8.88706 3993 ft 206 kts 250°
2026-05-07 16:13 50.10690 8.86712 3993 ft 187 kts 250°
2026-05-07 16:13 50.10245 8.84854 3911 ft 180 kts 250°
2026-05-07 16:13 50.09809 8.83037 3676 ft 178 kts 250°
2026-05-07 16:13 50.09380 8.81228 3410 ft 178 kts 250°
2026-05-07 16:14 50.08957 8.79446 3147 ft 177 kts 250°
2026-05-07 16:14 50.08526 8.77631 2908 ft 176 kts 250°
2026-05-07 16:14 50.08106 8.75866 2680 ft 176 kts 250°
2026-05-07 16:14 50.07682 8.74087 2435 ft 175 kts 250°
2026-05-07 16:15 50.07259 8.72310 2207 ft 175 kts 250°
2026-05-07 16:15 50.06839 8.70547 1984 ft 173 kts 250°
2026-05-07 16:15 50.06421 8.68790 1769 ft 170 kts 250°
2026-05-07 16:15 50.06027 8.67135 1538 ft 156 kts 250°
2026-05-07 16:16 50.05671 8.65643 1343 ft 139 kts 250°
2026-05-07 16:16 50.05342 8.64261 1155 ft 135 kts 250°
2026-05-07 16:16 50.05016 8.62891 985 ft 135 kts 250°
2026-05-07 16:16 50.04799 8.61982 842 ft 135 kts 250°
2026-05-07 16:17 50.04470 8.60608 663 ft 135 kts 250°
2026-05-07 16:17 50.04144 8.59237 500 ft 135 kts 250°
2026-05-07 16:17 50.03818 8.57881 373 ft 127 kts 250°
2026-05-07 16:17 50.03551 8.56753 358 ft 96 kts 249°
2026-05-07 16:18 50.03365 8.55972 359 ft 59 kts 250°
2026-05-07 16:18 50.03202 8.55538 358 ft 34 kts 224°
2026-05-07 16:18 50.03107 8.55438 356 ft 8 kts 181°
2026-05-07 16:18 50.03072 8.55488 355 ft 6 kts 117°
2026-05-07 16:19 50.03072 8.55546 355 ft 5 kts 73°
2026-05-07 16:19 50.03083 8.55592 351 ft 4 kts 70°
2026-05-07 16:19 50.03093 8.55634 357 ft 7 kts 69°
2026-05-07 16:19 50.03121 8.55748 356 ft 16 kts 69°
2026-05-07 16:20 50.03169 8.55947 356 ft 23 kts 70°
2026-05-07 16:20 50.03182 8.56168 360 ft 21 kts 134°
2026-05-07 16:20 50.03081 8.56235 358 ft 13 kts 156°
2026-05-07 16:21 50.02804 8.56948 363 ft 0 kts 250°